VIASAT-1

Last updated on Thu Aug 13 2026 00:02:59 GMT+0000 (Coordinated Universal Time)

1 37843U 11059A 26224.54930137 .00000000 00000+0 00000+0 0 9997 2 37843 0.0251 110.7900 0002191 29.8930 262.9625 1.00269287 47881
UTC large
Height (km)
Speed (km/s)
/
Latitude / Longitude
Inclination (degrees)
Orbital Period (minutes)
Azimuth
Elevation
Range (km)
Doppler Factor

Next 0 passes for location: London (51.5072 / 0.1276)

No passes found over London.
VIASAT-1